TimePST,TemperatureF,Dew PointF,Humidity,Sea Level PressureIn,VisibilityMPH,Wind Direction,Wind SpeedMPH,Gust SpeedMPH,PrecipitationIn,Events,Conditions,WindDirDegrees,DateUTC
12:54 AM,37.0,35.1,93,29.96,10.0,Calm,Calm,-,N/A,,Clear,0,2012-11-10 08:54:00
1:54 AM,34.0,32.0,92,29.97,10.0,Calm,Calm,-,N/A,,Clear,0,2012-11-10 09:54:00
2:54 AM,35.1,33.1,92,29.97,10.0,North,4.6,-,N/A,,Clear,10,2012-11-10 10:54:00
4:54 AM,35.1,32.0,89,29.99,10.0,Calm,Calm,-,N/A,,Clear,0,2012-11-10 12:54:00
5:54 AM,35.1,34.0,96,30.00,10.0,Calm,Calm,-,N/A,,Clear,0,2012-11-10 13:54:00
6:54 AM,34.0,32.0,92,30.03,3.0,Calm,Calm,-,N/A,,Clear,0,2012-11-10 14:54:00
7:06 AM,33.8,33.8,100,30.05,1.2,Calm,Calm,-,N/A,,Clear,0,2012-11-10 15:06:00
7:10 AM,33.8,32.0,93,30.06,0.5,Calm,Calm,-,N/A,Fog,Fog,0,2012-11-10 15:10:00
7:17 AM,33.8,32.0,93,30.06,10.0,Calm,Calm,-,N/A,,Clear,0,2012-11-10 15:17:00
7:28 AM,33.8,33.8,100,30.07,10.0,Calm,Calm,-,N/A,,Partly Cloudy,0,2012-11-10 15:28:00
7:54 AM,39.0,37.9,96,30.05,10.0,Calm,Calm,-,N/A,,Clear,0,2012-11-10 15:54:00
8:54 AM,46.0,39.0,76,30.08,10.0,Calm,Calm,-,N/A,,Clear,0,2012-11-10 16:54:00
9:54 AM,51.1,37.9,61,30.09,10.0,Calm,Calm,-,N/A,,Clear,0,2012-11-10 17:54:00
10:54 AM,53.1,39.0,59,30.11,10.0,SW,4.6,-,N/A,,Clear,230,2012-11-10 18:54:00
11:54 AM,55.0,37.0,51,30.10,10.0,SSW,4.6,-,N/A,,Clear,210,2012-11-10 19:54:00
12:54 PM,57.0,35.1,44,30.09,10.0,SW,5.8,-,N/A,,Clear,220,2012-11-10 20:54:00
1:54 PM,57.9,35.1,42,30.09,10.0,SSW,5.8,-,N/A,,Scattered Clouds,210,2012-11-10 21:54:00
2:54 PM,59.0,34.0,39,30.09,10.0,Calm,Calm,-,N/A,,Scattered Clouds,0,2012-11-10 22:54:00
3:54 PM,57.9,36.0,44,30.10,10.0,SSW,5.8,-,N/A,,Scattered Clouds,200,2012-11-10 23:54:00
4:54 PM,54.0,39.9,59,30.11,10.0,WSW,8.1,-,N/A,,Scattered Clouds,250,2012-11-11 00:54:00
5:54 PM,52.0,39.9,63,30.13,10.0,West,10.4,-,N/A,,Mostly Cloudy,260,2012-11-11 01:54:00
6:54 PM,46.9,39.0,74,30.15,10.0,SE,5.8,-,N/A,,Partly Cloudy,130,2012-11-11 02:54:00
8:54 PM,44.1,39.0,82,30.18,10.0,SE,4.6,-,N/A,,Clear,130,2012-11-11 04:54:00
9:54 PM,39.0,35.1,86,30.20,10.0,Calm,Calm,-,N/A,,Clear,0,2012-11-11 05:54:00
10:54 PM,36.0,34.0,93,30.22,10.0,Calm,Calm,-,N/A,,Clear,0,2012-11-11 06:54:00
11:54 PM,39.0,36.0,89,30.23,10.0,North,3.5,-,N/A,,Clear,10,2012-11-11 07:54:00